Weather History for KCYS - December, 2013

Change the Weather History Date:

Monday, December 30, 2013

  Actual Average Record
Temperature  
Mean Temperature 34 °F 28 °F  
Max Temperature 40 °F 39 °F 64 °F (1904)
Min Temperature 27 °F 18 °F -22 °F (2014)
Degree Days  
Heating Degree Days 31 37  
Month to date heating degree days 1172 1120  
Since 1 July heating degree days 2876 2868  
Cooling Degree Days 0 0  
Month to date cooling degree days 0 0  
Year to date cooling degree days 520 348  
Moisture  
Dew Point 12 °F    
Average Humidity 41    
Maximum Humidity 50    
Minimum Humidity 32    
Precipitation  
Precipitation 0.00 in 0.02 in 0.30 in (1947)
Month to date precipitation 0.45 0.48  
Year to date precipitation 18.13 15.93  
Snow  
Snow 0.00 in 0.30 in 6.00 in (1947)
Month to date snowfall 10.1 8.2  
Since 1 July snowfall 25.7 22.5  
Snow Depth 0.00 in    
Sea Level Pressure  
Sea Level Pressure 30.15 in    
Wind  
Wind Speed 17 mph (West)    
Max Wind Speed 33 mph    
Max Gust Speed 45 mph    
Visibility 10 miles    
Events      
T = Trace of Precipitation, MM = Missing Value Source: NWS Daily Summary

Daily Weather History Graph

Daily Weather History Graph

Search for Another Location

Airport or City:

Trip Planner

Search our weather history database for the weather conditions in past years. The results will help you decide how hot, cold, wet, or windy it might be!

Date:

Astronomy

Dec. 30, 2013 Rise Set
Actual Time 7:24 AM MST 4:39 PM MST
Civil Twilight 6:53 AM MST 5:10 PM MST
Nautical Twilight 6:18 AM MST 5:45 PM MST
Astronomical Twilight 5:45 AM MST 6:18 PM MST
Moon 5:16 AM MST (12/30) 3:15 PM MST (12/30)
Length of Visible Light 10h 17m
Length of Day
9h 15m
Waning Crescent, 4% of the Moon is Illuminated
Dec 30
Waning Crescent
Jan 1
New
Jan 7
First Quarter
Jan 15
Full
Jan 23
Last Quarter

Hourly Weather History & Observations

Time (MST) Temp. Windchill Dew Point Humidity Pressure Visibility Wind Dir Wind Speed Gust Speed Precip Events Conditions
12:53 AM 32.0 °F 18.6 °F 12.0 °F 44% 29.99 in 10.0 mi West 25.3 mph 36.8 mph N/A   Mostly Cloudy
1:53 AM 30.0 °F 17.2 °F 12.9 °F 49% 30.02 in 10.0 mi WNW 20.7 mph 32.2 mph N/A   Clear
2:53 AM 28.9 °F 15.8 °F 12.9 °F 51% 30.04 in 10.0 mi WNW 20.7 mph 31.1 mph N/A   Partly Cloudy
3:53 AM 28.9 °F 15.4 °F 12.9 °F 51% 30.07 in 10.0 mi WNW 21.9 mph 26.5 mph N/A   Scattered Clouds
4:53 AM 28.9 °F 16.9 °F 12.0 °F 49% 30.11 in 10.0 mi WNW 17.3 mph - N/A   Clear
5:53 AM 28.0 °F 17.5 °F 12.9 °F 53% 30.15 in 10.0 mi NW 12.7 mph 21.9 mph N/A   Clear
6:53 AM 30.0 °F 18.3 °F 12.9 °F 49% 30.16 in 10.0 mi WNW 17.3 mph 27.6 mph N/A   Partly Cloudy
7:53 AM 28.0 °F 16.1 °F 12.9 °F 53% 30.18 in 10.0 mi WNW 16.1 mph 23.0 mph N/A   Clear
8:53 AM 32.0 °F 19.5 °F 12.9 °F 45% 30.17 in 10.0 mi WNW 21.9 mph 31.1 mph N/A   Clear
9:53 AM 34.0 °F 22.4 °F 12.9 °F 42% 30.19 in 10.0 mi WNW 20.7 mph 32.2 mph N/A   Clear
10:53 AM 36.0 °F 26.0 °F 12.9 °F 39% 30.21 in 10.0 mi NW 17.3 mph 35.7 mph N/A   Clear
11:53 AM 37.0 °F 25.9 °F 12.9 °F 37% 30.17 in 10.0 mi WNW 23.0 mph 32.2 mph N/A   Clear
12:53 PM 37.0 °F 26.4 °F 12.0 °F 36% 30.16 in 10.0 mi NW 20.7 mph 31.1 mph N/A   Clear
1:53 PM 37.9 °F 29.2 °F 10.9 °F 33% 30.16 in 10.0 mi NW 15.0 mph 27.6 mph N/A   Clear
2:53 PM 39.9 °F 30.8 °F 12.0 °F 32% 30.14 in 10.0 mi West 18.4 mph 26.5 mph N/A   Clear
3:53 PM 37.0 °F 27.4 °F 12.9 °F 37% 30.17 in 10.0 mi WSW 17.3 mph 29.9 mph N/A   Clear
4:53 PM 36.0 °F 26.3 °F 12.9 °F 39% 30.17 in 10.0 mi WSW 16.1 mph 25.3 mph N/A   Clear
5:53 PM 35.1 °F 25.5 °F 10.0 °F 35% 30.17 in 10.0 mi WSW 15.0 mph - N/A   Clear
6:53 PM 32.0 °F - 10.0 °F 40% 30.19 in 10.0 mi North - - N/A   Clear
7:53 PM 28.0 °F 20.0 °F 10.9 °F 49% 30.23 in 10.0 mi SW 8.1 mph - N/A   Clear
8:53 PM 27.0 °F 18.7 °F 10.9 °F 51% 30.21 in 10.0 mi SSW 8.1 mph - N/A   Clear
9:53 PM 30.0 °F 22.4 °F 12.9 °F 49% 30.16 in 10.0 mi WSW 8.1 mph - N/A   Clear
10:53 PM 28.0 °F 20.0 °F 12.9 °F 53% 30.14 in 10.0 mi SW 8.1 mph - N/A   Clear
11:53 PM 33.1 °F 25.5 °F 14.0 °F 46% 30.07 in 10.0 mi SW 9.2 mph - N/A   Clear